Location: Castiglione Fibocchi
(43.5333°N, 11.7667°E)
Time: 18:14:44
(UTC+00:00)

MSX - Pass Details

Date: 15 August 2020
Orbit: 896 x 905 km, 98.8° (Epoch: 18 September)

Event Time Altitude Azimuth Distance (km) Brightness Sun altitude
Rises 03:27:18 0° 7° (N) 3,534 7.5 -9.2°
Reaches altitude 10° 03:29:48 10° 2° (N) 2,590 6.7 -8.8°
Maximum altitude 03:35:13 44° 292° (WNW) 1,240 4.3 -7.9°
Drops below altitude 10° 03:40:37 10° 222° (SW) 2,579 5.6 -7.1°
Enters shadow 03:41:47 - 219° (SW) 3,010 6.0 -6.9°
